Location: Newark
(16.3678°N, 77.8722°E)
Time: 03:34:06
(UTC+00:00)

Tiros 1 - Pass Details

Date: 10 December 2019
Orbit: 630 x 664 km, 48.4° (Epoch: 26 January)

Event Time Altitude Azimuth Distance (km) Brightness Sun altitude
Rises 23:26:21 0° 243° (WSW) 2,972 - -23.2°
Reaches altitude 10° 23:28:57 10° 255° (WSW) 2,057 - -22.6°
Maximum altitude 23:33:04 29° 315° (NW) 1,184 - -21.7°
Exits shadow 23:35:16 20° 358° (N) 1,480 8.8 -21.2°
Drops below altitude 10° 23:37:11 10° 16° (NNE) 2,040 9.7 -20.7°
Sets 23:39:45 0° 27° (NNE) 2,944 10.6 -20.2°
